Overview Statistics Trail Chart Weather Telemetry Raw packets
 

This is the latest recevied weather packets stored in our database for station/object KN6WGU. If no packets are shown the sender has not sent any weather packets the latest 10 day(s).

<< 62 63 64 65 66 67 68 >>
Time Temp. Humidity Pressure Rain* Wind** Luminosity Snow
1788180794 23.89° C 83% 1011.2 hPa 0 mm - 60 W/m² -
1788180493 23.89° C 83% 1011 hPa 0 mm - 65 W/m² -
1788180189 23.89° C 84% 1011.2 hPa 0 mm - 63 W/m² -
1788179884 23.33° C 84% 1011.1 hPa 0 mm - 42 W/m² -
1788179583 23.33° C 85% 1011.2 hPa 0 mm - 19 W/m² -
1788179283 23.33° C 84% 1011 hPa 0 mm - 17 W/m² -
1788178979 23.33° C 85% 1011.1 hPa 0 mm - 17 W/m² -
1788178679 23.33° C 85% 1011 hPa 0 mm - 16 W/m² -
1788178375 23.33° C 86% 1010.9 hPa 0 mm - 19 W/m² -
1788178070 23.33° C 86% 1011.2 hPa 0 mm - 24 W/m² -
1788177765 23.33° C 86% 1011 hPa 0 mm - 32 W/m² -
1788177460 23.33° C 86% 1011 hPa 0 mm - 28 W/m² -
1788177156 22.78° C 87% 1010.8 hPa 0 mm - 33 W/m² -
1788176855 22.78° C 87% 1011 hPa 0 mm - 32 W/m² -
1788176555 22.78° C 87% 1010.8 hPa 0 mm - 21 W/m² -
1788176250 22.78° C 87% 1011.1 hPa 0 mm - 18 W/m² -
1788175945 22.78° C 87% 1011 hPa 0 mm - 14 W/m² -
1788175644 22.78° C 86% 1011 hPa 0 mm - 11 W/m² -
1788175340 22.78° C 86% 1010.9 hPa 0 mm - 9 W/m² -
1788175035 22.78° C 86% 1011 hPa 0 mm - 6 W/m² -
1788174732 23.33° C 85% 1010.9 hPa 0 mm - 4 W/m² -
1788174427 22.78° C 85% 1010.9 hPa 0 mm - 2 W/m² -
1788174121 23.33° C 85% 1010.7 hPa 0 mm - 1 W/m² -
1788173815 23.33° C 84% 1010.7 hPa 0 mm - 1 W/m² -
1788173510 23.33° C 85% 1010.9 hPa 0 mm - 1 W/m² -

* Rain latest hour (hover to see other rain measurements)
** Current wind speed in m/s (hover to see current wind gust speed)